Printer-friendly version

IAU Minor Planet Center

Minor Planet Center

MPEC 2002-M29 : 2002 LJ3

The following Minor Planet Electronic Circular may be linked-to from your own Web pages, but must not otherwise be redistributed electronically.


Read MPEC 2002-M28 Read MPEC 2002-M30


M.P.E.C. 2002-M29                                Issued 2002 June 24, 16:31 UT

     The Minor Planet Electronic Circulars contain information on unusual
         minor planets and routine data on comets.  They are published
   on behalf of Commission 20 of the International Astronomical Union by the
          Minor Planet Center, Smithsonian Astrophysical Observatory,
                          Cambridge, MA 02138, U.S.A.

             Prepared using the Tamkin Foundation Computer Network

                              MPC@CFA.HARVARD.EDU
          URL http://cfa-www.harvard.edu/iau/mpc.html  ISSN 1523-6714

                                   2002 LJ3

                           Revision to MPEC 2002-L26

Observations:
     K02L03J 2 1993 05 12.22431 13 52 25.99 +05 34 17.2                      261
     K02L03J 2 1993 05 12.28472 13 52 20.93 +05 34 26.8                      261
     K02L03J  C1998 03 02.62606 10 27 47.69 +20 13 20.4                      327
     K02L03J  C1998 03 02.63127 10 27 47.16 +20 13 23.9          19.6        327
     K02L03J  C1998 03 02.63589 10 27 46.70 +20 13 27.8          19.5        327
     K02L03J  C1998 03 02.64056 10 27 46.25 +20 13 30.5                      327
     K02L03J  C1998 03 02.64529 10 27 45.80 +20 13 34.9                      327
     K02L03J  C1998 03 02.65038 10 27 45.26 +20 13 38.0                      327

Observer details:
261 Palomar-DSS.  Trail located and measured by ANEOPP (A. Boattini, G. Forti,
    G. D'Abramo).  1.2-m Schmidt.
327 Peking Observatory, Xinglong Station.  Observers J. Zhu, L. J. Ma.  0.6-m
    Schmidt + CCD.

Orbital elements:
2002 LJ3
Epoch 2002 May 6.0 TT = JDT 2452400.5                   MPC
M 254.55386              (2000.0)            P               Q
n   0.55770182     Peri.  249.60394     +0.97077184     -0.21283436
a   1.4617329      Node   122.53483     +0.23796201     +0.91371257
e   0.2754974      Incl.    7.56029     -0.03124303     +0.34616597
P   1.77           H   18.2           G   0.15           U   3
Residuals in seconds of arc
930512 261  0.7-  0.1-    020606 704  0.7+  0.8+    020609 649  0.0   0.1+
930512 261  0.6+  0.2-    020606 704  0.1-  0.7+    020610 644  0.0   0.2-
980302 327  0.4+  0.1+    020606 704  1.0-  1.2+    020610 644  0.0   0.4-
980302 327  0.1+  0.2-    020606 704  0.2-  1.5+    020610 704  0.2-  0.2-
980302 327  0.1-  0.3+    020606 704  0.6+  0.2+    020610 644  0.0   0.5-
980302 327  0.0   0.4-    020606 704  0.3-  0.4+    020610 704  0.9+  0.6-
980302 327  0.1+  0.5+    020606 704  0.1-  1.1+    020610 704  0.3+  0.2-
980302 327  0.5-  0.1-    020606 704  0.5+  0.2-    020610 704  0.5+  0.3-
020605 608  0.3-  0.4-    020606 704  0.2+  1.9+    020610 422  0.5-  0.9-
020605 608  0.8+  0.6-    020606 734  1.1-  0.1-    020610 422  0.5+  0.6-
020605 608  0.0   0.6-    020606 734  0.9+  0.0     020610 422  0.2+  0.3+
020605 413  0.1+  0.5-    020606 649  0.3+  0.1+    020614 704  1.1-  1.1+
020605 413  0.1-  0.5-    020606 649  0.0   0.0     020614 704  1.0+  0.5-
020605 413  0.1-  0.5-    020607 649  0.2-  0.1+    020614 704  1.0-  0.4+
020605 413  0.1+  0.4-    020607 649  0.2-  0.1-    020614 704  1.3-  0.4-
020605 413  0.1-  0.5-    020607 649  0.1-  0.1-    020623 413  0.2+  0.2+
020605 413  0.1-  0.4-    020609 649  0.5-  0.1-    020623 413  0.2+  0.1+
020606 704  0.0   0.1-    020609 649  0.4+  0.1-    020623 413  0.3+  0.1-

Ephemeris:
2002 LJ3                 a,e,i = 1.46, 0.28, 8                   q = 1.0590
Date    TT    R. A. (2000) Decl.     Delta      r     Elong.  Phase     V
2002 06 25    16 14.15   -07 17.7    0.526    1.485   147.0    21.9    18.7
2002 07 05    16 00.50   -08 45.2    0.532    1.446   135.8    29.4    18.9
2002 07 15    15 52.30   -10 41.0    0.547    1.406   125.4    36.1    19.1
2002 07 25    15 50.24   -12 57.4    0.569    1.365   116.1    41.9    19.3
2002 08 04    15 54.08   -15 27.1    0.592    1.325   108.2    46.7    19.4
2002 08 14    16 03.44   -18 04.6    0.615    1.284   101.4    50.7    19.6
2002 08 24    16 17.89   -20 44.6    0.634    1.245    95.6    53.9    19.7
2002 09 03    16 37.06   -23 21.8    0.650    1.207    90.7    56.7    19.7
2002 09 13    17 00.80   -25 50.6    0.661    1.172    86.7    59.0    19.8
2002 09 23    17 29.02   -28 04.2    0.667    1.139    83.4    61.0    19.8
2002 10 03    18 01.57   -29 53.9    0.669    1.112    80.8    62.7    19.8
2002 10 13    18 38.37   -31 10.1    0.668    1.089    78.9    64.1    19.8
2002 10 23    19 18.95   -31 42.0    0.663    1.072    77.7    65.1    19.8
2002 11 02    20 02.54   -31 18.8    0.658    1.062    77.2    65.6    19.7
2002 11 12    20 48.12   -29 52.3    0.655    1.059    77.2    65.7    19.7

Timothy B. Spahr             (C) Copyright 2002 MPC           M.P.E.C. 2002-M29

Read MPEC 2002-M28 Read MPEC 2002-M30


Our Web policy. Index to the CBAT/MPC/ICQ pages.


Valid HTML 4.01!